TELSTAR 19V (43562 NORAD) Tracking and Keplerian Element Data

This shows tracking and keplerian element data for the satellite.

Feedback or suggestion? Click here.




ElementValue
Catalog43562
NameTELSTAR 19V
Epoch Orbit500
Epoch Day316.74847274
Epoch Year2019
RAAN261.1341
Inclination0.0121
Eccentricity0.000223
Argument of Perigee317.9754
Mean Anonmoly38.9016
Mean Motion1.00268013
Decay Rate-2.65E-06
L11 43562U 18059A 19316.74847274 -.00000265 00000-0 00000-0 0 9990
L22 43562 0.0121 261.1341 0002230 317.9754 38.9016 1.00268013 5000

Live tracking and technical data element details for TELSTAR 19V (NORAD 43562). TELSTAR 19V can be tracked NOW for your location showing map with azimuth and elevation plus other details from your city location.

Track the satellite on the map from your city or location and see movement details for azimuth, elevation, latitude, longitude, range, height, and movement on the map or in text.







IsCatalogInMostPopularTable: catalog: 43562, numindb: 539
Update: records affected: 1



GetName: 43562 TELSTAR 19V

Hit Count: updated at: Wed, 13 Nov 2019 18:11:30 GMT